Regional Weather Roundup
Issued by NWS Albany, NY

Home | Current Version | Previous Version | Text Only | Print | Product List | Glossary On
Versions: 1 2 3 4 5 6 7 8 9 10 11 12 13 14 15 16 17 18 19 20 21 22 23 24 25 26 27 28 29 30 31 32 33 34 35 36 37 38 39 40 41 42 43 44 45 46 47 48 49 50
000
ASUS41 KALY 060210
RWRALY

NEW YORK STATE HOURLY WEATHER ROUNDUP
NATIONAL WEATHER SERVICE ALBANY NY
1000 PM EDT SUN JUL 05 2015

NOTE: "FAIR" INDICATES FEW OR NO CLOUDS BELOW 12,000 FEET WITH NO
SIGNIFICANT WEATHER AND/OR NO OBSTRUCTIONS TO VISIBILITY.

NYZ032-033-038>043-046>054-057>066-NYZ062>081-060300-
EAST


CITY           SKY/WX    TMP DP  RH WIND       PRES   REMARKS
ALBANY         PTCLDY    70  60  70 SW3       30.12R
GLENS FALLS    CLEAR     66  61  84 CALM      30.11R
POUGHKEEPSIE   CLEAR     68  63  84 CALM      30.12R
NEWBURGH       CLEAR     72  64  78 W6        30.14R
MONTGOMERY     PTCLDY    67  63  87 CALM      30.13R
WHITE PLAINS   PTCLDY    69  63  81 CALM      30.14R
ISLIP          MOCLDY    70  63  78 SW7       30.13R
NEW YORK CITY  MOCLDY    75  64  68 S9        30.13R
CENTRAL PARK   PTCLDY    75  62  64 VRB3      30.16R
$$

NYZ005>009-017-018-044>046-055-056-060300-
CENTRAL


CITY           SKY/WX    TMP DP  RH WIND       PRES   REMARKS
FULTON         CLEAR     60  57  89 CALM      30.13R
SYRACUSE       CLEAR     67  60  78 CALM      30.13R
ROME           CLEAR     64  60  87 CALM      30.15R
ELMIRA         PTCLDY    64  62  93 CALM      30.15R
BINGHAMTON     PTCLDY    71  52  50 N3        30.18R
MONTICELLO     PTCLDY    64  61  88 CALM      30.19R
$$

NYZ026>034-041>043-060300-
NORTH


CITY           SKY/WX    TMP DP  RH WIND       PRES   REMARKS
WATERTOWN      CLEAR     60  57  89 CALM      30.13R
FORT DRUM      NOT AVBL
MASSENA        CLEAR     68  60  75 SW7       30.12R
SARANAC LAKE   CLEAR     56  55  97 CALM      30.16R
PLATTSBURGH    CLEAR     65  63  93 CALM      30.11R
$$

NYZ001>004-010>016-019>021-060300-
WEST


CITY           SKY/WX    TMP DP  RH WIND       PRES   REMARKS
NIAGARA FALLS  MOCLDY    71  58  63 S5        30.11R
BUFFALO        MOCLDY    73  56  54 CALM      30.12R
DUNKIRK        MOCLDY    66  61  84 E3        30.12R
JAMESTOWN      MOCLDY    70  59  68 NE5       30.17R
WELLSVILLE     MOCLDY    68  57  68 CALM      30.20R
ROCHESTER      PTCLDY    73  61  65 SE5       30.13R
PENN YAN       PTCLDY    67  60  78 CALM      30.16R
$$

             KEY
       WCI = WIND CHILL INDEX
       VSB = VISIBILITY
       HX  = HEAT INDEX
$$


USA.gov is the U.S. government's official web portal to all federal, state and local government web resources and services.